Hourly Data Report for November 17, 2010

HALIFAX STANFIELD INT'L A
NOVA SCOTIA

44°52'48.060" N
63°30'00.050" W
145.40 m
8202250
71395
YHZ

Download Data

Hourly Data (November 2010)
Hourly Data Report for November 17, 2010
TIME
LST
Temp Definition
°C
Dew Point Definition
°C
Rel Hum Definition
%
Precip. Amount Definition
mm

Wind Dir Definition
10's deg

Wind Spd Definition
km/h
Visibility Definition
km
Stn Press Definition
kPa
Hmdx Definition


Wind Chill Definition


Weather Definition


00:00 9.7 8.9 95   13 4 0.4 100.04     Drizzle, Fog
01:00 9.5 8.3 92   36 6 0.2 100.07     Fog
02:00 9.4 8.0 91   32 6 0.4 100.05     Fog
03:00 9.2 6.3 82   31 6 0.2 100.07     Fog
04:00 9.0 6.8 86   35 7 0.4 100.06     Fog
05:00 8.9 8.9 100   1 7 0.6 100.07     Fog
06:00 8.8 8.3 97   4 11 2.4 100.06     Fog
07:00 8.8 8.1 95   6 11 1.0 99.98     Fog
08:00 8.9 8.3 96   8 17 3.2 99.96     Fog
09:00 9.1 8.5 96   8 13 1.2 99.88     Fog
10:00 9.2 8.5 95   10 17 0.6 99.84     Fog
11:00 9.9 8.9 93   12 19 0.4 99.73     Fog
12:00 10.0 9.4 96   13 22 3.2 99.59     Fog
13:00 9.8 9.3 97   14 20 9.7 99.47     Rain, Fog
14:00 9.5 8.7 95   12 20 4.0 99.21     Rain, Fog
15:00 11.1 10.7 97   14 24 2.0 99.02     Rain, Fog
16:00 12.5 9.8 84   15 33 4.8 98.81     Rain, Fog
17:00 13.4 11.4 88   16 37 6.4 98.66     Fog
18:00 13.0 11.2 89   16 35 2.8 98.50     Moderate Rain, Fog
19:00 13.1 11.4 89   18 35 8.0 98.51     Fog
20:00 12.8 10.9 88   20 35 8.0 98.48     Fog
21:00 12.4 10.4 88   19 32 12.9 98.41     Rain Showers
22:00 12.5 10.2 86   20 39 12.9 98.31     Cloudy
23:00 10.8 8.3 85   20 37 24.1 98.21     Mainly Clear

Notes on Data Quality.

Legend

  • E = Estimated
  • M = Missing
  • NA = Not Available*
  • [empty] = Indicates an unobserved value
Date modified: